User: anonymous   Login
Location: Santa Teresa Spring
(37.2333°N, 121.7000°W)
Time: 13:56:13
(UTC-07:00)
Language:

Cosmos 1633 - Orbit

View from above orbital plane
View from above orbital plane
View from above satellite
View from above satellite

Ground track
Ground track

The orbit data is extracted from the following two-line orbital elements,

1 15592U 85020A   17113.84855036 +.00004276 +00000-0 +15336-3 0  9999
2 15592 082.5414 013.7529 0014195 016.8566 343.3142 15.28328826755717
Epoch (UTC): 23 April 2017 20:21:54
Eccentricity: 0.0014195
inclination: 82.5414°
perigee height: 471 km
apogee height: 490 km
right ascension of ascending node: 13.7529°
argument of perigee: 16.8566°
revolutions per day: 15.28328826
mean anomaly at epoch: 343.3142°
orbit number at epoch: 75571

The dashed part of the orbit path shows where the satellite is in the earth's shadow,  

DLR